CW5775 Weather Reports


Display with metric or nautical units.
time (UTC)temp
F
wind
direction
speed
MPH
gust
MPH
rain 1hr
in
rain 24hr
in
rain mn
in
humidity
%
barometer
mb
20260505022335 63 188 4.0 6.0 0.00 0.00 0.00 69 1007.8
20260505021555 62 186 3.0 0.0 0.00 0.00 0.00 68 1007.7
20260505021354 63 182 3.0 5.0 0.00 0.00 0.00 67 1007.8
20260505020346 63 176 2.0 7.0 0.00 0.00 0.00 66 1007.8
20260505020056 62 180 2.0 0.0 0.00 0.00 0.00 66 1007.7
20260505015341 63 175 2.0 5.0 0.00 0.00 0.00 63 1007.8
20260505014532 63 177 2.0 0.0 0.00 0.00 0.00 62 1007.7
20260505014401 63 185 1.0 5.0 0.00 0.00 0.00 61 1007.8
20260505013351 64 187 2.0 4.0 0.00 0.00 0.00 59 1007.7
20260505013005 63 182 2.0 0.0 0.00 0.00 0.00 59 1007.7
20260505012346 64 185 2.0 4.0 0.00 0.00 0.00 58 1007.6
20260505011557 64 174 2.0 0.0 0.00 0.00 0.00 57 1007.6
20260505011346 64 187 1.0 4.0 0.00 0.00 0.00 57 1007.6
20260505010403 64 187 2.0 5.0 0.00 0.00 0.00 55 1007.3
20260505010034 64 186 2.0 0.0 0.00 0.00 0.00 55 1007.2
20260505005337 65 179 2.0 3.0 0.00 0.00 0.00 54 1007.3
20260505004503 65 178 1.0 0.0 0.00 0.00 0.00 53 1007.2
20260505004357 65 178 1.0 4.0 0.00 0.00 0.00 53 1007.3
20260505003352 66 180 2.0 3.0 0.00 0.00 0.00 52 1007.2
20260505003001 66 179 2.0 0.0 0.00 0.00 0.00 51 1007.1
20260505002350 67 182 1.0 4.0 0.00 0.00 0.00 50 1007.1
20260505001543 67 183 2.0 0.0 0.00 0.00 0.00 49 1007.0
20260505001416 67 185 1.0 5.0 0.00 0.00 0.00 49 1007.1
20260505000351 68 179 3.0 6.0 0.00 0.00 0.00 48 1006.8
20260505000016 67 191 3.0 0.0 0.00 0.00 0.00 48 1006.7
20260504235346 68 183 2.0 5.0 0.00 0.00 0.00 47 1006.7
20260504234616 68 177 3.0 0.0 0.00 0.00 0.00 47 1006.7
20260504234348 69 184 3.0 6.0 0.00 0.00 0.00 46 1006.7
20260504233343 69 183 2.0 4.0 0.00 0.00 0.00 46 1006.7
20260504233052 69 188 2.0 0.0 0.00 0.00 0.00 45 1006.7
20260504232356 70 192 3.0 6.0 0.00 0.00 0.00 44 1006.8
20260504231539 70 181 3.0 0.0 0.00 0.00 0.00 44 1006.7
20260504231336 71 193 3.0 6.0 0.00 0.00 0.00 43 1006.8
20260504230355 71 181 3.0 7.0 0.00 0.00 0.00 43 1006.7
20260504230019 70 180 3.0 0.0 0.00 0.00 0.00 42 1006.7
20260504225352 71 209 4.0 10.0 0.00 0.00 0.00 42 1006.7
20260504224606 71 201 4.0 0.0 0.00 0.00 0.00 42 1006.7
20260504224352 71 190 4.0 7.0 0.00 0.00 0.00 41 1006.7
20260504223351 72 187 4.0 10.0 0.00 0.00 0.00 42 1006.7
20260504223056 71 185 4.0 0.0 0.00 0.00 0.00 41 1006.7
20260504222346 72 220 4.0 9.0 0.00 0.00 0.00 40 1006.8
20260504221534 72 194 4.0 0.0 0.00 0.00 0.00 40 1006.7
20260504221347 72 183 3.0 11.0 0.00 0.00 0.00 40 1006.8
20260504220402 73 183 5.0 10.0 0.00 0.00 0.00 40 1006.8
20260504215407 73 179 5.0 10.0 0.00 0.00 0.00 40 1006.8
20260504214538 73 203 5.0 0.0 0.00 0.00 0.00 39 1006.8
20260504214410 73 177 6.0 12.0 0.00 0.00 0.00 39 1006.8
20260504213410 74 220 5.0 11.0 0.00 0.00 0.00 39 1006.8
20260504213058 73 211 4.0 0.0 0.00 0.00 0.00 39 1006.8
20260504212345 74 203 4.0 10.0 0.00 0.00 0.00 38 1006.8
20260504211520 74 248 5.0 0.0 0.00 0.00 0.00 39 1006.7
20260504211403 74 184 5.0 13.0 0.00 0.00 0.00 37 1006.8
20260504210353 74 177 5.0 11.0 0.00 0.00 0.00 38 1006.7
20260504210106 74 200 5.0 0.0 0.00 0.00 0.00 38 1006.7
20260504205348 74 204 5.0 11.0 0.00 0.00 0.00 38 1006.7
20260504204625 74 180 6.0 0.0 0.00 0.00 0.00 38 1006.7
20260504204346 74 217 6.0 13.0 0.00 0.00 0.00 38 1006.7
20260504203339 74 192 6.0 13.0 0.00 0.00 0.00 38 1006.8
20260504203047 74 170 4.0 0.0 0.00 0.00 0.00 37 1006.8
20260504202348 74 215 5.0 12.0 0.00 0.00 0.00 37 1006.9
20260504201514 74 213 5.0 0.0 0.00 0.00 0.00 38 1006.9
20260504201345 74 207 5.0 13.0 0.00 0.00 0.00 36 1006.9
20260504200339 74 174 3.0 11.0 0.00 0.00 0.00 36 1007.1
20260504200015 74 198 4.0 0.0 0.00 0.00 0.00 36 1007.0
20260504195352 74 278 5.0 10.0 0.00 0.00 0.00 37 1007.2
20260504194556 74 212 5.0 0.0 0.00 0.00 0.00 37 1007.2
20260504194349 74 191 6.0 11.0 0.00 0.00 0.00 37 1007.2
20260504193402 74 191 7.0 15.0 0.00 0.00 0.00 37 1007.3
20260504193032 74 175 5.0 0.0 0.00 0.00 0.00 36 1007.3
20260504192358 74 168 5.0 11.0 0.00 0.00 0.00 36 1007.6
20260504191545 73 196 4.0 0.0 0.00 0.00 0.00 37 1007.6
20260504191356 73 196 3.0 9.0 0.00 0.00 0.00 38 1007.6
20260504190350 73 170 3.0 14.0 0.00 0.00 0.00 38 1007.8
20260504190050 72 246 3.0 0.0 0.00 0.00 0.00 38 1007.8
20260504185343 73 191 3.0 9.0 0.00 0.00 0.00 38 1008.1
20260504184507 72 189 3.0 0.0 0.00 0.00 0.00 38 1008.0
20260504184341 72 308 3.0 11.0 0.00 0.00 0.00 37 1008.0
20260504183404 72 209 2.0 9.0 0.00 0.00 0.00 37 1008.3
20260504183058 71 229 4.0 0.0 0.00 0.00 0.00 37 1008.3
20260504182408 72 151 5.0 13.0 0.00 0.00 0.00 38 1008.5
20260504181504 71 206 4.0 0.0 0.00 0.00 0.00 38 1008.5
20260504181348 72 304 2.0 13.0 0.00 0.00 0.00 38 1008.5
20260504180343 72 187 7.0 12.0 0.00 0.00 0.00 39 1008.8
20260504180103 71 211 4.0 0.0 0.00 0.00 0.00 37 1008.8
20260504175406 72 175 6.0 10.0 0.00 0.00 0.00 37 1008.9
20260504174509 71 152 3.0 0.0 0.00 0.00 0.00 39 1008.8
20260504174405 71 175 3.0 7.0 0.00 0.00 0.00 38 1008.9
20260504173402 71 208 5.0 11.0 0.00 0.00 0.00 37 1008.9
20260504173037 71 191 5.0 0.0 0.00 0.00 0.00 39 1008.9
20260504172342 70 192 3.0 7.0 0.00 0.00 0.00 41 1009.2
20260504171520 69 282 4.0 0.0 0.00 0.00 0.00 43 1009.2
20260504171341 69 194 4.0 14.0 0.00 0.00 0.00 42 1009.2
20260504170339 69 304 3.0 10.0 0.00 0.00 0.00 38 1009.4
20260504160346 68 179 2.0 6.0 0.00 0.00 0.00 42 1010.0
20260504150354 65 244 3.0 9.0 0.00 0.00 0.00 53 1010.4
20260504140350 62 206 6.0 12.0 0.00 0.00 0.00 63 1010.5
20260504130350 59 181 9.0 13.0 0.00 0.00 0.00 65 1011.1
20260504110347 47 186 2.0 3.0 0.00 0.00 0.00 87 1011.7
20260504100358 45 188 1.0 3.0 0.00 0.00 0.00 83 1011.9
20260504081555 47 182 2.0 0.0 0.00 0.00 0.00 73 1011.8
20260504081354 47 182 2.0 5.0 0.00 0.00 0.00 73 1011.8
20260504080350 47 189 3.0 5.0 0.00 0.00 0.00 72 1011.7
20260504070406 47 184 3.0 5.0 0.00 0.00 0.00 71 1011.4
20260504050350 47 187 2.0 5.0 0.00 0.00 0.00 68 1011.4
20260504045344 47 186 2.0 3.0 0.00 0.00 0.00 68 1011.3
20260504044527 46 184 2.0 0.0 0.00 0.00 0.00 68 1011.4
20260504044343 47 184 2.0 3.0 0.00 0.00 0.00 68 1011.3
20260504043337 47 185 1.0 3.0 0.00 0.00 0.00 68 1011.1
20260504043015 46 185 2.0 0.0 0.00 0.00 0.00 68 1011.2
20260504042349 47 184 2.0 4.0 0.00 0.00 0.00 67 1011.0
20260504041553 47 187 2.0 0.0 0.00 0.00 0.00 66 1011.0
20260504041348 48 187 2.0 3.0 0.00 0.00 0.00 66 1011.0
20260504040343 48 187 2.0 4.0 0.00 0.00 0.00 64 1010.9
20260504040022 48 187 2.0 0.0 0.00 0.00 0.00 64 1011.0
20260504035343 49 189 2.0 4.0 0.00 0.00 0.00 63 1010.9
20260504034607 48 190 2.0 0.0 0.00 0.00 0.00 63 1011.0
20260504034402 49 190 2.0 4.0 0.00 0.00 0.00 63 1010.9
20260504033336 49 188 2.0 4.0 0.00 0.00 0.00 62 1010.8
20260504033022 48 187 2.0 0.0 0.00 0.00 0.00 62 1010.9
20260504032335 49 186 2.0 3.0 0.00 0.00 0.00 62 1010.7
20260504031605 49 185 2.0 0.0 0.00 0.00 0.00 61 1010.8
20260504031357 49 184 2.0 4.0 0.00 0.00 0.00 61 1010.7
20260504030352 49 183 2.0 4.0 0.00 0.00 0.00 59 1010.7
20260504025344 50 181 1.0 3.0 0.00 0.00 0.00 58 1010.8
20260504024539 49 180 2.0 0.0 0.00 0.00 0.00 58 1010.9
20260504024343 50 180 3.0 4.0 0.00 0.00 0.00 57 1010.8
20260504023407 50 190 2.0 4.0 0.00 0.00 0.00 57 1010.8
20260504023009 50 187 2.0 0.0 0.00 0.00 0.00 57 1010.9